Content
SEND FEEDBACK

Daily
Averages
Monthly
Summary
United States of America

NEW YORK - CENTRAL PARK, NEW YORK


Home > North America > United States > New York
Elevation: 4 meters     Latitude: 40 47N     Longitude: 073 58W

WEATHER
 
SELECT A DAY
Number of Records: 148,218;   Date Range: 11/1/95 - 8/30/14
 
SHARE

PRINT THIS DATA

[ ← Previous Day ]
WEATHER ALMANAC - 1 NOVEMBER, 2013
[ Next Day → ]
[ °F ]   °C
Weather ElementAverageHighLow
Temperature18.8 °C20.6 °C (5:51 am)16.7 °C (10:14 am)
Dewpoint13.8 °C16.7 °C (8:51 am)10 °C (4:51 pm)
Humidity73.7 %87 % (1:51 am)51 % (4:51 pm)
Barometer1003.4 hPa1007.5 hPa (1:51 am)1001 hPa (4:51 pm)
Wind Speed10.1 km/h37 km/h (10:04 am)
Wind Gust70.3 km/h (10:04 am)
Weather ElementAverage
Visibility13.5 km
Wind DirectionENE (58.9 °)

Weather ElementTotal
Precipitation7.37 mm
Cooling Degree Days0.3 (Base 18.3)
Growing Degree Days8.7 (Base 10)
Averaged from 27 records on 1 November, 2013
WEATHER CONDITIONS BREAKOUT
WIND DIRECTION BREAKOUT
WEATHER BY HOUR - 1 NOVEMBER, 2013
[ °F ]   °C
Local TimeTemperatureDewpointHumidityBarometerVisibilityWind DirectionWind SpeedGust SpeedPrecipitationEventsConditions
1:51 AM18.3 °C16.1 °C87 %1007.5 hPa16.1 kmVariable5.6 km/hPartly Cloudy
2:51 AM18.9 °C15.6 °C81 %1006.4 hPa16.1 kmVariable5.6 km/hClear
3:51 AM18.9 °C15.6 °C81 %1005.4 hPa16.1 kmVariable9.3 km/hScattered Clouds
4:51 AM19.4 °C15 °C76 %1004.1 hPa16.1 kmVariable11.1 km/hMostly Cloudy
5:51 AM20.6 °C15.6 °C73 %1002.7 hPa16.1 kmVariable11.1 km/hMostly Cloudy
6:51 AM20.6 °C16.1 °C75 %1002.7 hPa16.1 kmVariable9.3 km/hMostly Cloudy
7:51 AM20 °C16.1 °C78 %1001.7 hPa16.1 kmVariable11.1 km/h0.25 mmRainLight Rain
8:51 AM20 °C16.7 °C81 %1001.7 hPa11.3 kmVariable9.3 km/h29.6 km/h0.51 mmRainLight Rain
9:51 AM20.6 °C16.1 °C75 %1001.7 hPa14.5 kmNorth0.51 mmRainLight Rain
10:04 AM20 °C16.1 °C78 %1004.4 hPa1.9 kmWest (280°)37 km/h70.3 km/h0 mmRainLight Rain
10:06 AM18.3 °C15.6 °C84 %1004.4 hPa1.3 kmWest (270°)18.5 km/h70.3 km/h0.51 mmRainHeavy Rain
10:14 AM16.7 °C14.4 °C86 %1004.1 hPa1.9 kmVariable9.3 km/h44.4 km/h1.78 mmRainLight Rain
10:17 AM16.7 °C14.4 °C86 %1004.1 hPa6.4 kmNorth1.78 mmRainLight Rain
10:51 AM16.7 °C14.4 °C86 %1002.7 hPa16.1 kmWest (280°)5.6 km/h2.03 mmOvercast
11:51 AM17.8 °C13.3 °C75 %1002.7 hPa16.1 kmVariable5.6 km/hOvercast
12:51 PM18.3 °C12.8 °C70 %1002 hPa16.1 kmVariable5.6 km/h31.5 km/hOvercast
1:51 PM19.4 °C12.8 °C66 %1001.4 hPa16.1 kmVariable9.3 km/hOvercast
2:51 PM20 °C11.7 °C59 %1001.4 hPa16.1 kmWest (260°)16.7 km/h31.5 km/hMostly Cloudy
3:51 PM20 °C10.6 °C55 %1001.4 hPa16.1 kmVariable9.3 km/h31.5 km/hPartly Cloudy
4:51 PM20.6 °C10 °C51 %1001 hPa16.1 kmWSW (240°)11.1 km/hClear
5:51 PM19.4 °C10 °C54 %1002 hPa16.1 kmVariable7.4 km/hClear
6:51 PM18.3 °C11.7 °C65 %1003 hPa6.4 kmVariable9.3 km/hHaze
7:51 PM18.3 °C11.7 °C65 %1003.7 hPa16.1 kmNorthClear
8:51 PM18.3 °C11.7 °C65 %1004.1 hPa16.1 kmVariable7.4 km/hClear
9:51 PM17.8 °C12.8 °C73 %1004.7 hPa16.1 kmVariable9.3 km/hClear
10:51 PM16.7 °C13.3 °C80 %1005.8 hPa16.1 kmWest (260°)9.3 km/hClear
11:51 PM16.7 °C13.9 °C84 %1005.1 hPa16.1 kmCalmClear
Hourly data recorded from KNYC, located 0 kilometers away from New York - Central Park, New York







STORIES FROM OUR PARTNERS